This is the latest recevied weather packets stored in our database for station/object OM6ACB-6. If no packets are shown the sender has not sent any weather packets the latest 10 day(s).
| Time | Temp. | Humidity | Pressure | Rain* | Wind** | Luminosity | Snow |
|---|---|---|---|---|---|---|---|
| 1788109926 | 22.22° C | 22% | 1020.3 hPa | 0 mm | - | - | - |
| 1788109326 | 22.78° C | 21% | 1020.4 hPa | 0 mm | - | - | - |
| 1788108726 | 23.89° C | 21% | 1020.4 hPa | 0 mm | - | - | - |
| 1788108126 | 24.44° C | 20% | 1020.5 hPa | 0 mm | - | - | - |
| 1788107525 | 25° C | 20% | 1020.6 hPa | 0 mm | - | - | - |
| 1788106925 | 26.11° C | 20% | 1020.8 hPa | 0 mm | - | - | - |
| 1788106327 | 29.44° C | 20% | 1021.3 hPa | 0 mm | - | - | - |
| 1788105724 | 29.44° C | 20% | 1021.3 hPa | 0 mm | - | - | - |
| 1788105124 | 31.11° C | 20% | 1021.5 hPa | 0 mm | - | - | - |
| 1788104524 | 31.11° C | 20% | 1021.5 hPa | 0 mm | - | - | - |
| 1788103924 | 28.33° C | 20% | 1021.2 hPa | 0 mm | - | - | - |
| 1788103323 | 27.22° C | 20% | 1021 hPa | 0 mm | - | - | - |
| 1788102723 | 27.78° C | 20% | 1021.2 hPa | 0 mm | - | - | - |
| 1788102123 | 30° C | 20% | 1021.5 hPa | 0 mm | - | - | - |
| 1788101522 | 30.56° C | 20% | 1021.6 hPa | 0 mm | - | - | - |
| 1788100922 | 30.56° C | 20% | 1021.7 hPa | 0 mm | - | - | - |
| 1788100322 | 31.11° C | 20% | 1021.7 hPa | 0 mm | - | - | - |
| 1788099722 | 30.56° C | 20% | 1021.6 hPa | 0 mm | - | - | - |
| 1788099121 | 30.56° C | 20% | 1021.8 hPa | 0 mm | - | - | - |
| 1788098521 | 30.56° C | 20% | 1021.7 hPa | 0 mm | - | - | - |
| 1788097921 | 29.44° C | 20% | 1021.6 hPa | 0 mm | - | - | - |
| 1788097320 | 29.44° C | 20% | 1021.7 hPa | 0 mm | - | - | - |
| 1788096720 | 29.44° C | 20% | 1021.7 hPa | 0 mm | - | - | - |
| 1788096120 | 30° C | 20% | 1021.9 hPa | 0 mm | - | - | - |
| 1788095520 | 30° C | 20% | 1022 hPa | 0 mm | - | - | - |
* Rain latest hour (hover to see other rain measurements)
** Current wind speed in m/s (hover to see current wind gust speed)